Find Starlink 34401

NORAD ID: 64757 Int'l Des: 2025-147 Owner: SPXS Country: US Constellation: starlink operational
LEOCIRCULAR

Live Position

Loading 3D Globe...

About Starlink 34401

Description loading...

Upcoming Passes

Passes for default location (London). Set your location on the main map for personalized predictions.

Altitude History

Loading altitude history...

Two-Line Element Set

1 64757U 25147C 26105.63466061 .00011280 00000-0 39235-3 0 9991
2 64757 53.1605 71.4650 0001767 98.4693 261.6508 15.30202304 44336
Epoch: Apr 15, 2026 • Age: 20 hours

Current Status

Altitude 476.9 km
Velocity 7.63 km/s
Sub-Earth Point -3.31°S, 46.55°E
Launch Date Jul 8, 2025
Age 0.7 years
Type internet

Technical Details

Classification Payload
Mass 575.00 kg
Dry Mass 530.00 kg
Total Mass 575.00 kg
Length 0.30 m
Diameter 4.10 m
Span 29.00 m
Shape Box + pan
Manufacturer SPXS
Bus Type Starlink V2MO
Phase Status In Orbit
Owner/State SPXS/US

Most Searched